Regional Weather Roundup
Issued by NWS

Home | Current Version | Previous Version | Graphics & Text | Print | Product List | Glossary On
Versions: 1 2 3 4 5 6 7 8 9 10 11 12 13 14 15 16 17 18 19 20 21 22 23 24 25 26 27 28 29 30 31 32 33 34 35 36 37 38 39 40 41 42 43 44 45 46 47 48 49 50
183
ASUS43 KBIS 171210
RWRND

NORTH DAKOTA REGIONAL WEATHER ROUNDUP
NATIONAL WEATHER SERVICE BISMARCK ND
600 AM CST FRI NOV 17 2017

NOTE: "FAIR" INDICATES FEW OR NO CLOUDS BELOW 12,000 FEET WITH NO
SIGNIFICANT WEATHER AND/OR OBSTRUCTIONS TO VISIBILITY.


NDZ001>003-009>011-017-171300-
NORTHWEST NORTH DAKOTA

CITY           SKY/WX    TMP DP  RH WIND       PRES   REMARKS
WILLISTON      CLEAR     16  10  77 N3        29.66R
6HR MIN TEMP:  15; 6HR MAX TEMP:  31;

MINOT          CLOUDY    17  11  77 NW7       29.63F WCI   8
MINOT AFB      CLOUDY    16  10  74 NW8       29.63R WCI   6
$$

NDZ018>021-031>035-040>046-171300-
SOUTHWEST NORTH DAKOTA

CITY           SKY/WX    TMP DP  RH WIND       PRES   REMARKS
BISMARCK       CLOUDY    34  32  92 CALM      29.66R
6HR MIN TEMP:  26; 6HR MAX TEMP:  36;

DICKINSON      CLOUDY    28  22  78 W5        29.61R
GARRISON         N/A     24  18  77 NW13      29.63R WCI  12
6HR MIN TEMP:  24; 6HR MAX TEMP:  39;

HETTINGER ARPT CLOUDY    31  25  78 CALM      29.63F
$$

NDZ004>008-012>016-024-026-027-054-171300-
NORTHEAST NORTH DAKOTA

CITY           SKY/WX    TMP DP  RH WIND       PRES   REMARKS
GRAND FORKS    CLOUDY    32  29  88 S10       29.62R
GRND FRKS AFB  CLOUDY    31  28  88 SW9       29.62R
DEVILS LAKE    CLOUDY    24  19  81 NW15      29.61R WCI  11
$$

NDZ022-023-025-028>030-036>039-047>053-171300-
SOUTHEAST NORTH DAKOTA

CITY           SKY/WX    TMP DP  RH WIND       PRES   REMARKS
FARGO          CLOUDY    35  29  78 S9        29.61R
6HR MIN TEMP:  34; 6HR MAX TEMP:  35;

JAMESTOWN      CLOUDY    30  26  85 NW3       29.60R
$$





USA.gov is the U.S. government's official web portal to all federal, state and local government web resources and services.